• In Deutschland
  • Länderverzeichnis
  • Für 7 Tage
  • Wassertemperatur
  • Satellitenkarten
  • Wetterkarte
  • Widgets
  • user-avatar
    Anmelden

    Stündliche Wetter Bad Buchau

    Heute, 19 Januar, Freitag

    Zeit Temperatur Niederschläge Wind Luftdruck Luftfeuchtigkeit
    00:00 +3°C° 2,3 mm 7 m/S 701 mmHg 90%
    01:00 +3°C° 2,3 mm 7 m/S 701 mmHg 90%
    02:00 +3°C° 0,8 mm 7 m/S 701 mmHg 88%
    03:00 +2°C° 0,8 mm 7 m/S 701 mmHg 86%
    04:00 +2°C° 0,8 mm 7 m/S 702 mmHg 84%
    05:00 0°C° 0,3 mm 7 m/S 702 mmHg 84%
    06:00 0°C° 0,3 mm 7 m/S 703 mmHg 84%
    07:00 -1°C° 0,3 mm 6 m/S 703 mmHg 84%
    08:00 -1°C° 0,1 mm 6 m/S 704 mmHg 84%
    09:00 -1°C° 0,1 mm 6 m/S 704 mmHg 83%
    10:00 -1°C° 0,1 mm 6 m/S 705 mmHg 82%
    11:00 -1°C° 0,2 mm 6 m/S 705 mmHg 80%
    12:00 -1°C° 0,2 mm 6 m/S 706 mmHg 78%
    13:00 +1°C° 0,2 mm 6 m/S 706 mmHg 76%
    14:00 0°C° 0,2 mm 5 m/S 706 mmHg 77%
    15:00 0°C° 0,2 mm 5 m/S 706 mmHg 79%
    16:00 0°C° 0,2 mm 4 m/S 707 mmHg 80%
    17:00 -1°C° 0,1 mm 4 m/S 707 mmHg 83%
    18:00 -1°C° 0,1 mm 4 m/S 707 mmHg 85%
    19:00 -1°C° 0,1 mm 3 m/S 707 mmHg 88%
    20:00 -2°C° 0,2 mm 4 m/S 707 mmHg 89%
    21:00 -2°C° 0,2 mm 4 m/S 707 mmHg 89%
    22:00 -2°C° 0,2 mm 4 m/S 707 mmHg 90%
    23:00 -2°C° 0,6 mm 4 m/S 707 mmHg 90%

    Morgen, 20 Januar, Samstag

    Zeit Temperatur Niederschläge Wind Luftdruck Luftfeuchtigkeit
    00:00 -2°C° 0,6 mm 4 m/S 707 mmHg 90%
    01:00 -2°C° 0,6 mm 5 m/S 707 mmHg 90%
    02:00 -2°C° 0,3 mm 5 m/S 707 mmHg 89%
    03:00 -2°C° 0,3 mm 5 m/S 707 mmHg 89%
    04:00 -2°C° 0,3 mm 5 m/S 707 mmHg 89%
    05:00 -2°C° 0,4 mm 5 m/S 707 mmHg 89%
    06:00 -3°C° 0,4 mm 6 m/S 707 mmHg 89%
    07:00 -3°C° 0,4 mm 6 m/S 707 mmHg 89%
    08:00 -2°C° 0,4 mm 5 m/S 706 mmHg 89%
    09:00 -1°C° 0,4 mm 5 m/S 706 mmHg 89%
    10:00 -1°C° 0,4 mm 5 m/S 706 mmHg 89%
    11:00 -1°C° 0,4 mm 5 m/S 705 mmHg 88%
    12:00 -1°C° 0,4 mm 4 m/S 703 mmHg 87%
    13:00 0°C° 0,4 mm 4 m/S 702 mmHg 86%
    14:00 0°C° 0,5 mm 3 m/S 701 mmHg 87%
    15:00 0°C° 0,5 mm 3 m/S 700 mmHg 87%
    16:00 +1°C° 0,5 mm 2 m/S 699 mmHg 88%
    17:00 +1°C° 0,9 mm 2 m/S 699 mmHg 90%
    18:00 0°C° 0,9 mm 3 m/S 699 mmHg 91%
    19:00 0°C° 0,9 mm 3 m/S 699 mmHg 93%
    20:00 -1°C° 0,5 mm 4 m/S 700 mmHg 94%
    21:00 -1°C° 0,5 mm 4 m/S 700 mmHg 94%
    22:00 0°C° 0,5 mm 5 m/S 701 mmHg 95%
    23:00 -2°C° 0,4 mm 6 m/S 702 mmHg 94%

    übermorgen, 21 Januar, Sonntag

    Zeit Temperatur Niederschläge Wind Luftdruck Luftfeuchtigkeit
    00:00 -2°C° 0,4 mm 6 m/S 703 mmHg 92%
    01:00 -3°C° 0,4 mm 7 m/S 703 mmHg 91%
    02:00 -4°C° 0,1 mm 5 m/S 704 mmHg 92%
    03:00 -3°C° 0,1 mm 4 m/S 706 mmHg 92%
    04:00 -4°C° 0,1 mm 3 m/S 707 mmHg 92%
    05:00 -5°C° 0 mm 3 m/S 707 mmHg 93%
    06:00 -4°C° 0 mm 2 m/S 708 mmHg 93%
    07:00 -5°C° 0 mm 2 m/S 709 mmHg 94%
    08:00 -4°C° 0 mm 2 m/S 709 mmHg 93%
    09:00 -4°C° 0 mm 2 m/S 710 mmHg 92%
    10:00 -3°C° 0 mm 2 m/S 710 mmHg 92%
    11:00 -2°C° 0 mm 2 m/S 710 mmHg 90%
    12:00 -1°C° 0 mm 2 m/S 710 mmHg 88%
    13:00 -1°C° 0 mm 2 m/S 710 mmHg 87%
    14:00 -1°C° 0,2 mm 2 m/S 710 mmHg 88%
    15:00 -1°C° 0,2 mm 2 m/S 710 mmHg 90%
    16:00 -1°C° 0,2 mm 2 m/S 709 mmHg 91%
    17:00 -1°C° 0,3 mm 2 m/S 709 mmHg 93%
    18:00 -1°C° 0,3 mm 2 m/S 709 mmHg 94%
    19:00 -1°C° 0,3 mm 2 m/S 709 mmHg 95%
    20:00 -1°C° 0,5 mm 2 m/S 708 mmHg 96%
    21:00 -1°C° 0,5 mm 2 m/S 708 mmHg 96%
    22:00 +1°C° 0,5 mm 2 m/S 708 mmHg 96%
    23:00 +1°C° 1,2 mm 2 m/S 708 mmHg 97%

    22 Januar, Montag

    Zeit Temperatur Niederschläge Wind Luftdruck Luftfeuchtigkeit
    00:00 +1°C° 1,2 mm 3 m/S 708 mmHg 98%
    01:00 +1°C° 1,2 mm 3 m/S 708 mmHg 99%
    02:00 +2°C° 2,2 mm 3 m/S 708 mmHg 99%
    03:00 +1°C° 2,2 mm 4 m/S 708 mmHg 99%
    04:00 +3°C° 2,2 mm 4 m/S 708 mmHg 99%
    05:00 +3°C° 1,9 mm 4 m/S 708 mmHg 99%
    06:00 +3°C° 1,9 mm 4 m/S 708 mmHg 98%
    07:00 +3°C° 1,9 mm 5 m/S 708 mmHg 98%
    08:00 +4°C° 1,9 mm 4 m/S 709 mmHg 98%
    09:00 +4°C° 1,9 mm 4 m/S 709 mmHg 98%
    10:00 +4°C° 1,9 mm 4 m/S 709 mmHg 98%
    11:00 +4°C° 0,9 mm 4 m/S 709 mmHg 98%
    12:00 +5°C° 0,9 mm 5 m/S 710 mmHg 98%
    13:00 +5°C° 0,9 mm 5 m/S 710 mmHg 98%
    14:00 +5°C° 1,6 mm 5 m/S 710 mmHg 97%
    15:00 +4°C° 1,6 mm 6 m/S 710 mmHg 97%
    16:00 +5°C° 1,6 mm 6 m/S 710 mmHg 96%
    17:00 +5°C° 0,4 mm 6 m/S 711 mmHg 95%
    18:00 +5°C° 0,4 mm 6 m/S 711 mmHg 94%
    19:00 +5°C° 0,4 mm 6 m/S 711 mmHg 93%
    20:00 +5°C° 0,1 mm 6 m/S 711 mmHg 93%
    21:00 +5°C° 0,1 mm 7 m/S 712 mmHg 92%
    22:00 +5°C° 0,1 mm 7 m/S 712 mmHg 91%
    23:00 +5°C° 0,3 mm 7 m/S 712 mmHg 91%

    23 Januar, Dienstag

    Zeit Temperatur Niederschläge Wind Luftdruck Luftfeuchtigkeit
    00:00 +5°C° 0,3 mm 7 m/S 712 mmHg 90%
    01:00 +5°C° 0,3 mm 7 m/S 712 mmHg 89%
    02:00 +5°C° 0,1 mm 7 m/S 712 mmHg 89%
    03:00 +5°C° 0,1 mm 6 m/S 712 mmHg 90%
    04:00 +5°C° 0,1 mm 6 m/S 713 mmHg 90%
    05:00 +5°C° 0,1 mm 6 m/S 713 mmHg 90%
    06:00 +5°C° 0,1 mm 6 m/S 713 mmHg 90%
    07:00 +5°C° 0,1 mm 6 m/S 714 mmHg 90%
    08:00 +5°C° 0 mm 6 m/S 714 mmHg 89%
    09:00 +5°C° 0 mm 6 m/S 715 mmHg 88%
    10:00 +7°C° 0 mm 6 m/S 715 mmHg 87%
    11:00 +7°C° 0 mm 6 m/S 715 mmHg 86%
    12:00 +7°C° 0 mm 6 m/S 716 mmHg 84%
    13:00 +8°C° 0 mm 6 m/S 716 mmHg 83%
    14:00 +7°C° 0 mm 6 m/S 716 mmHg 84%
    15:00 +7°C° 0 mm 5 m/S 716 mmHg 84%
    16:00 +7°C° 0 mm 5 m/S 716 mmHg 85%
    17:00 +6°C° 0 mm 4 m/S 717 mmHg 87%
    18:00 +6°C° 0 mm 4 m/S 717 mmHg 89%
    19:00 +5°C° 0 mm 4 m/S 718 mmHg 92%
    20:00 +5°C° 0 mm 3 m/S 718 mmHg 92%
    21:00 +4°C° 0 mm 3 m/S 718 mmHg 93%
    22:00 +4°C° 0 mm 3 m/S 719 mmHg 93%
    23:00 +4°C° 0 mm 2 m/S 719 mmHg 94%

    24 Januar, Mittwoch

    Zeit Temperatur Niederschläge Wind Luftdruck Luftfeuchtigkeit
    00:00 +4°C° 0 mm 2 m/S 719 mmHg 94%
    01:00 +3°C° 0 mm 2 m/S 718 mmHg 94%
    02:00 +4°C° 0 mm 1 m/S 718 mmHg 93%
    03:00 +4°C° 0 mm 1 m/S 718 mmHg 93%
    04:00 +4°C° 0 mm 1 m/S 718 mmHg 92%
    05:00 +4°C° 0 mm 1 m/S 718 mmHg 92%
    06:00 +3°C° 0 mm 1 m/S 717 mmHg 91%
    07:00 +3°C° 0 mm 1 m/S 717 mmHg 91%
    08:00 +4°C° 0 mm 1 m/S 717 mmHg 89%
    09:00 +5°C° 0 mm 1 m/S 717 mmHg 87%
    10:00 +6°C° 0 mm 1 m/S 717 mmHg 86%
    11:00 +7°C° 0 mm 1 m/S 717 mmHg 82%
    12:00 +8°C° 0 mm 1 m/S 716 mmHg 79%
    13:00 +10°C° 0 mm 1 m/S 716 mmHg 75%
    14:00 +9°C° 0 mm 1 m/S 715 mmHg 78%
    15:00 +9°C° 0 mm 1 m/S 715 mmHg 81%
    16:00 +9°C° 0 mm 1 m/S 715 mmHg 84%
    17:00 +7°C° 0 mm 1 m/S 715 mmHg 86%
    18:00 +6°C° 0 mm 1 m/S 715 mmHg 87%
    19:00 +5°C° 0 mm 1 m/S 714 mmHg 89%
    20:00 +5°C° 0 mm 1 m/S 714 mmHg 88%
    21:00 +4°C° 0 mm 1 m/S 714 mmHg 88%
    22:00 +4°C° 0 mm 1 m/S 714 mmHg 87%
    23:00 +4°C° 0 mm 1 m/S 714 mmHg 86%
    Mehr zeigen